Flag for Colombia Weather past 2 weeks in Villavicencio, Colombia

Now
50 °F

Passing clouds.


Feels Like: 48 °F
Forecast: 60 / 80 °F
Wind: 6 mph from Northeast

Location: Bogota / Eldorado

Current Time: Jul 10, 2014 at 2:22:56 AM

Latest Report: Jul 10, 2014 at 1:00 AM


Visibility: N/A

Pressure: 30.35 "Hg

Humidity: 94%

Dew point: 48 °F

Location of VillavicencioLocation

Historic Weather in Villavicencio — Graph

°F

Villavicencio temperature yesterday

Maximum temperature yesterday: 63 °F (at 11:00 AM)
Minimum temperature yesterday: 48 °F (at 2:00 AM)
Average temperature yesterday: 56 °F

Past Weeks' High & Low Weather Summary

 TemperatureHumidityPressure
High81 °F (Jun 27, 4:00 AM)100% (Jun 30, 3:00 AM)30.46 "Hg (Jun 30, 3:00 AM)
Low45 °F (Jun 27, 5:00 AM)23% (Jun 27, 4:00 AM)30.25 "Hg (Jul 1, 5:00 PM)
Average56 °F75%30.36 "Hg
* Reported Jun 25 1:00 AM — Jul 10 1:00 AM, Villavicencio, Weather by CustomWeather, © 2014

Note: Actual official high and low records may vary slightly from our data, if they occured in-between our weather recording intervals... More about our weather records

Advertising

Villavicencio weather history for previous 24 hours

 ConditionsComfort  
Time TempWeatherWind HumidityBarometerVisibility
1:00 AM
Jul 10
50 °FPassing clouds.6 mph94%30.35 "HgN/A
12:00 AM52 °FPassing clouds.3 mph94%30.38 "HgN/A
11:00 PM
Jul 9
50 °FPassing clouds.2 mph94%30.38 "HgN/A
10:00 PM50 °FPassing clouds.2 mph94%30.38 "HgN/A
9:00 PM52 °FPassing clouds.2 mph94%30.38 "HgN/A
8:00 PM52 °FPassing clouds.6 mph94%30.37 "HgN/A
7:00 PM54 °FScattered showers. Passing clouds.2 mph94%30.35 "HgN/A
6:00 PM55 °FDrizzle. Broken clouds.2 mph88%30.34 "HgN/A
5:00 PM57 °FDrizzle. Broken clouds.6 mph77%30.32 "Hg4 mi
4:00 PM61 °FDrizzle. Broken clouds.8 mph63%30.29 "HgN/A
3:00 PM61 °FDrizzle. Broken clouds.8 mph72%30.30 "Hg5 mi
2:00 PM63 °FScattered showers. Broken clouds.2 mph64%30.31 "Hg5 mi
1:00 PM61 °FScattered showers. Broken clouds.7 mph63%30.35 "Hg5 mi
12:00 PM63 °FScattered showers. Broken clouds.13 mph56%30.37 "HgN/A
11:00 AM63 °FScattered showers. Partly sunny.13 mph59%30.38 "HgN/A
10:00 AM61 °FPartly sunny.10 mph59%30.39 "HgN/A
9:00 AM59 °FPartly sunny.12 mph59%30.30 "HgN/A
8:00 AM55 °FScattered clouds.3 mph77%30.39 "HgN/A
3:00 AM50 °FPassing clouds.3 mph88%30.35 "HgN/A
2:00 AM48 °FPassing clouds.2 mph94%30.36 "HgN/A
Weather by CustomWeather, © 2014

See weather overviewHow to use our weather pages